Location: Caicarita
(10.0502°N, 67.6875°W)
Time: 20:57:38
(UTC+00:00)

Fermi - Pass Details

Date: 05 August 2024
Orbit: 506 x 519 km, 25.6° (Epoch: 07 September)

Event Time Altitude Azimuth Distance (km) Brightness Sun altitude
Rises 23:03:50 0° 228° (SW) 2,608 7.7 -3.5°
Reaches altitude 10° 23:06:12 10° 219° (SW) 1,725 6.7 -4.1°
Maximum altitude 23:09:52 35° 153° (SSE) 843 4.4 -4.9°
Drops below altitude 10° 23:13:33 10° 86° (E) 1,734 5.8 -5.8°
Enters shadow 23:14:47 - 81° (E) 2,186 6.3 -6.1°
